Location: Unspecified
(43.3830°N, 0.0000°E)
Time: 08:38:45
(UTC+00:00)

Explorer 7 - Pass Details

Date: 26 June 2019
Orbit: 485 x 680 km, 50.3° (Epoch: 16 July)

Event Time Altitude Azimuth Distance (km) Brightness Sun altitude
Rises 14:01:49 0° 293° (WNW) 2,953 10.8 58.4°
Reaches altitude 10° 14:04:23 10° 282° (WNW) 2,066 10.3 58.0°
Maximum altitude 14:08:24 27° 224° (SW) 1,270 9.8 57.3°
Drops below altitude 10° 14:12:30 10° 167° (SSE) 2,105 10.0 56.7°
Sets 14:15:09 0° 156° (SSE) 3,020 10.6 56.2°
